Location: Unspecified
(0.0000°N, 0.0000°E)
Time: 06:30:03
(UTC+00:00)

Vanguard 2 - Pass Details

Date: 19 November 2019
Orbit: 553 x 2938 km, 32.9° (Epoch: 10 December)

Event Time Altitude Azimuth Distance (km) Brightness Sun altitude
Rises 21:27:52 0° 224° (SW) 4,730 12.2 -51.0°
Reaches altitude 10° 21:36:22 10° 184° (S) 4,549 11.7 -52.8°
Maximum altitude 21:37:41 10° 178° (S) 4,643 11.7 -53.1°
Drops below altitude 10° 21:39:03 10° 172° (S) 4,768 11.7 -53.4°
Sets 21:50:40 0° 135° (SE) 6,498 12.2 -55.8°
